Theta_e
316 314 314 313 311 311 313 314 312 313 314 317 319 319 322 324 323 323 323 323 321 321 321 321 319 319 319 318 317 317 316 316 315 315 314 314 313 313 312 311 310 309 309
315 314 313 311 312 315 317 317 317 316 317 318 321 322 323 323 322 321 322 322 322 321 320 319 318 317 315 314 313 312 311 311 309 309 308 307 305 303 303 302 302 301 301
315 313 311 312 314 317 314 315 317 318 319 319 318 317 318 318 318 318 319 319 318 316 311 311 311 310 310 309 308 307 306 305 305 303 301 299 298 298 299 298 298 298 298
314 312 312 312 313 313 313 313 313 313 314 313 313 312 312 313 313 312 312 310 308 308 308 309 308 307 306 305 305 303 301 300 299 298 298 298 298 298 297 297 298 298 298
313 312 311 312 312 311 311 310 310 310 310 310 310 310 310 310 309 310 310 310 309 309 309 307 306 305 301 300 299 298 298 297 297 297 297 297 297 297 297 297 298 297 298
312 309 310 311 311 310 309 309 308 308 308 308 308 307 307 306 307 307 307 307 306 306 305 303 301 300 299 297 297 297 297 297 298 298 297 297 297 297 298 298 299 299 298
308 308 309 310 310 309 308 307 307 306 305 304 302 300 302 303 304 304 304 304 303 301 300 300 299 297 296 296 296 297 298 298 299 299 298 298 298 297 298 299 299 299 299
307 306 307 308 310 308 308 307 305 304 300 299 298 297 298 299 300 300 300 300 299 298 297 296 296 296 296 297 298 299 299 300 301 301 300 300 299 298 299 300 300 301 300
306 306 306 306 308 307 306 304 303 301 298 298 298 297 296 296 296 296 296 295 295 295 295 295 296 297 297 298 299 300 302 302 302 302 301 301 299 299 299 300 301 302 302
306 305 305 306 307 305 304 303 301 298 298 298 298 297 297 297 297 296 296 295 295 294 294 295 297 297 299 300 301 302 303 303 303 302 302 302 300 299 300 300 300 300 301
305 305 305 304 304 305 303 302 299 300 300 300 299 298 297 297 298 298 296 296 294 295 296 298 299 300 301 302 303 303 303 303 303 302 302 302 302 301 300 300 300 301 301
306 306 307 303 300 302 302 300 300 300 300 300 300 299 298 298 298 299 298 297 297 298 299 300 301 302 303 303 303 303 303 303 302 303 302 303 303 302 302 302 302 302 302
306 306 306 302 299 299 299 300 300 300 300 300 300 300 300 300 300 300 300 300 301 301 301 302 302 303 303 303 303 302 302 302 302 302 301 301 301 301 301 302 302 302 303
306 306 305 302 299 299 300 300 300 301 302 302 302 303 303 303 304 303 304 303 302 302 303 303 303 303 303 303 303 303 303 302 302 302 301 301 301 301 301 301 301 302 303
306 306 304 302 299 300 299 299 300 302 302 303 303 304 304 304 304 304 304 304 304 303 304 303 303 303 304 303 303 303 302 302 301 301 301 301 300 300 301 301 301 302 302
308 307 304 301 299 299 299 299 300 301 303 304 304 304 304 305 305 305 305 304 304 303 304 304 303 302 302 303 303 303 302 301 301 301 301 301 300 300 300 300 301 301 301
308 306 303 301 299 299 300 300 300 301 304 303 304 304 305 304 305 305 305 304 304 304 303 304 303 303 303 303 303 302 302 302 301 301 301 301 301 300 301 301 301 301 302
306 304 302 300 299 300 300 300 300 301 302 304 303 303 304 304 305 304 304 305 305 306 305 305 304 304 304 304 304 304 303 303 302 302 302 301 301 301 301 301 301 302 302
305 303 301 300 300 301 301 300 300 302 303 304 304 305 305 305 305 305 305 306 305 305 305 306 305 305 304 305 306 305 305 303 303 303 303 303 302 301 301 301 301 302 302
304 301 300 300 301 301 301 301 301 302 303 305 306 305 304 305 306 306 306 305 305 304 304 305 305 305 305 304 304 306 306 305 305 304 304 304 304 303 301 301 300 301 302
303 301 300 300 301 302 304 302 303 303 304 305 305 305 305 305 305 305 305 304 303 303 303 303 303 303 304 305 304 304 305 307 306 306 306 306 306 305 303 302 301 301 301
302 300 300 301 301 302 303 304 303 304 304 305 305 305 306 305 305 305 304 303 302 302 302 302 302 301 301 301 302 304 304 305 307 306 305 305 305 304 303 302 302 302 301
301 300 300 301 301 302 303 303 304 304 305 304 305 305 305 306 306 304 303 303 303 302 302 301 301 301 300 300 301 303 303 304 305 305 307 306 306 304 303 303 303 303 303
300 300 300 301 301 301 301 302 303 303 304 304 304 305 305 305 304 304 304 304 303 302 300 300 300 300 300 300 301 303 303 303 304 304 306 306 306 304 304 303 304 303 303
300 299 300 301 301 301 301 301 301 301 302 302 302 303 303 303 304 303 303 303 302 301 300 300 300 300 299 299 301 303 304 304 304 304 304 304 306 305 304 304 303 301 298
299 299 299 299 300 300 300 300 300 300 301 301 301 300 300 300 301 301 301 301 301 300 300 300 300 299 299 299 300 302 304 304 304 304 305 305 304 305 304 305 304 300 300
Wind_Speed
33 36 36 36 38 36 31 24 21 20 20 18 15 17 20 21 15 12 9 9 9 9 8 7 8 8 8 8 8 8 9 10 11 12 13 16 18 21 24 25 27 28 29
33 33 34 37 39 32 25 24 20 16 16 15 13 15 15 15 16 16 15 14 13 12 11 11 10 8 6 4 4 5 7 8 9 11 15 17 18 19 20 19 19 20 21
34 33 35 38 36 24 24 25 17 12 9 9 8 8 10 12 12 8 9 11 15 16 13 10 8 4 3 6 9 9 10 10 10 11 12 10 9 9 10 10 11 12 11
34 34 35 33 33 26 23 23 18 14 13 13 13 13 11 7 8 8 9 10 11 12 8 8 8 9 8 8 10 9 6 4 3 3 4 3 3 4 7 9 8 11 10
31 33 27 23 28 29 27 25 23 22 20 18 14 13 10 8 7 6 5 2 2 2 6 8 8 6 7 8 5 2 3 3 4 2 1 4 6 4 4 7 11 11 2
29 27 21 17 19 20 22 23 24 24 23 20 18 16 13 11 9 9 6 5 5 6 5 3 5 6 7 3 5 7 8 7 8 9 8 7 7 8 8 9 10 9 4
27 26 22 15 15 17 21 20 22 23 21 17 15 11 10 10 8 7 7 7 6 6 6 7 7 4 6 6 7 9 9 11 11 9 7 5 6 4 5 7 10 9 6
25 24 23 21 14 13 17 19 22 23 22 20 19 17 13 13 10 9 8 7 6 7 8 7 9 9 12 13 12 11 10 9 8 7 8 5 4 4 6 8 10 8 10
24 27 26 19 16 14 15 19 22 23 21 22 23 24 23 20 18 16 12 10 9 10 10 13 12 14 14 13 11 9 8 8 8 7 5 7 5 6 8 8 10 10 11
21 25 27 22 15 11 13 19 24 21 21 20 21 21 22 22 21 21 19 12 12 11 12 15 15 15 14 12 11 11 13 13 12 8 7 8 8 4 6 6 6 6 7
18 22 24 24 16 12 13 20 21 21 22 24 25 23 21 22 22 22 20 18 16 18 19 19 18 15 14 14 13 13 14 12 11 12 12 12 10 8 3 3 4 4 4
17 20 25 24 19 13 14 16 18 20 23 25 24 25 24 21 22 22 22 23 21 21 20 18 16 15 14 13 13 12 13 13 12 12 12 11 9 11 9 7 7 6 5
16 19 23 24 21 17 18 19 22 23 24 24 26 27 26 24 20 20 20 20 20 19 19 16 15 15 16 15 16 16 14 15 15 13 14 13 10 7 5 6 6 6 6
12 18 21 25 19 18 19 21 22 24 25 25 26 25 24 24 25 25 24 22 19 18 18 19 18 17 18 19 18 18 17 17 16 13 12 10 9 11 10 7 7 7 6
11 14 17 21 20 17 20 21 22 24 24 23 23 23 25 25 26 25 24 23 22 21 19 18 19 18 19 18 18 17 17 16 17 15 15 13 11 9 9 9 8 8 9
11 11 13 18 18 18 17 17 17 19 21 22 23 22 24 21 23 25 23 23 20 20 20 24 25 23 23 21 20 19 21 21 18 16 16 15 15 12 10 10 10 11 12
12 9 11 14 13 15 17 15 13 15 21 19 20 23 21 22 20 24 28 27 26 24 24 23 24 23 20 22 23 22 22 22 25 19 15 15 15 15 15 13 13 13 13
12 10 12 12 12 14 14 13 12 15 18 19 19 21 18 21 24 24 26 23 26 25 22 20 19 20 19 17 19 18 18 21 20 20 24 21 16 15 15 16 15 16 16
11 11 13 13 13 14 14 13 11 14 16 16 16 21 24 18 20 20 25 26 27 29 28 27 25 24 25 27 19 10 10 15 16 16 18 16 21 13 15 14 12 12 13
9 12 12 12 14 15 18 17 14 14 15 16 16 18 15 21 21 23 23 24 24 25 25 25 24 23 23 22 22 23 20 9 8 12 14 12 13 17 15 13 10 8 8
8 11 11 11 13 14 17 16 16 17 16 16 16 17 17 16 19 21 21 22 23 23 23 23 24 24 23 21 21 21 21 15 16 11 10 8 12 12 11 9 8 7 6
8 9 11 11 12 13 15 16 14 16 15 15 15 15 15 15 16 17 18 19 20 20 21 22 22 22 22 20 19 17 17 16 14 12 10 11 10 9 9 9 10 11 10
9 9 11 11 11 10 12 13 15 16 18 15 13 13 14 14 15 16 17 18 18 20 23 24 23 23 24 21 15 15 14 15 14 12 10 10 10 9 8 9 11 12 13
10 10 9 9 9 8 8 10 11 11 13 14 15 12 13 13 13 14 14 15 18 22 25 25 22 24 25 24 15 14 14 13 11 11 8 8 7 7 7 8 9 13 17
7 8 7 7 6 6 6 7 7 9 11 11 13 14 15 15 14 14 16 18 21 24 25 23 21 22 23 24 16 13 14 12 10 9 7 7 6 5 5 5 9 14 16
6 6 5 4 3 2 3 4 5 6 7 9 11 14 15 17 17 18 20 21 22 22 22 20 18 20 19 22 18 13 14 12 10 10 9 5 5 5 4 4 9 12 11
Wind_Direction
349 347 346 344 343 339 334 316 300 300 299 294 291 294 291 288 275 264 243 221 207 205 202 198 189 182 189 194 204 216 226 236 238 242 243 245 250 256 265 267 268 267 265
349 347 345 345 348 350 358 347 342 320 306 308 294 288 288 282 274 265 252 230 213 202 193 187 175 164 179 196 231 248 251 250 256 254 258 260 270 272 271 272 272 273 274
349 350 351 356 1 1 358 357 354 1 356 352 10 353 337 318 291 242 227 234 187 152 125 118 113 90 12 327 307 291 286 285 280 275 270 273 274 277 283 285 285 284 286
349 351 1 9 11 7 11 20 25 44 51 50 51 53 54 67 71 69 89 89 66 65 46 7 353 343 321 308 298 302 305 309 309 294 285 276 273 292 307 306 311 295 288
348 354 9 18 33 37 47 46 43 45 50 50 49 58 54 61 52 17 358 321 277 309 352 344 340 328 334 338 332 11 44 30 37 43 54 36 7 352 5 24 5 8 341
354 10 14 26 18 44 45 37 41 47 41 34 29 22 15 34 26 21 7 16 32 46 37 18 3 336 337 48 72 64 61 57 59 66 51 41 40 58 35 15 6 13 39
17 24 17 18 34 36 44 42 37 27 24 25 28 26 45 54 33 41 56 62 57 41 15 353 343 38 78 84 80 82 71 58 49 41 31 32 53 57 34 31 43 29 24
37 32 28 27 27 27 39 42 36 26 29 37 39 48 54 54 36 31 22 15 13 9 2 48 76 80 80 87 92 76 61 36 23 28 32 26 39 76 64 29 39 72 76
40 33 29 23 31 37 30 36 31 29 41 47 51 54 54 54 45 36 25 22 27 38 65 87 84 86 87 83 73 54 33 36 30 29 42 45 55 89 69 65 50 67 76
39 34 24 23 31 34 37 37 32 40 50 53 51 54 54 52 49 43 42 43 50 55 70 87 87 85 81 70 56 55 44 41 43 52 59 54 55 91 79 66 47 31 33
30 27 21 21 22 24 38 35 33 49 53 52 47 47 52 48 45 41 41 46 68 79 82 82 82 77 62 46 41 39 38 40 47 55 59 60 63 60 99 53 49 36 24
30 21 26 28 31 45 44 46 55 49 50 50 52 52 50 50 48 51 51 57 74 79 77 75 66 53 44 41 40 44 53 51 52 56 53 58 60 64 68 60 51 51 23
24 27 31 35 46 62 70 68 58 52 53 52 57 52 52 51 50 49 60 63 65 69 69 56 50 46 52 53 52 55 55 49 44 47 45 56 58 41 24 29 42 40 39
19 33 37 38 55 72 75 61 54 53 50 44 43 45 45 47 48 53 58 63 65 64 57 54 59 59 58 56 53 52 50 44 43 49 47 45 46 50 65 62 68 73 74
21 34 44 39 51 61 64 61 56 48 44 43 42 42 47 47 53 52 54 59 65 64 65 65 59 56 54 52 51 45 43 41 41 47 48 48 51 58 63 67 73 75 77
24 40 49 43 53 52 53 58 60 45 49 48 44 56 53 54 51 44 59 57 60 68 58 57 57 54 53 53 51 51 49 46 48 50 48 50 56 67 76 77 81 84 86
28 49 50 44 52 54 53 61 65 47 56 55 58 58 57 54 50 59 63 65 65 64 66 64 58 57 58 56 56 59 60 54 55 55 50 51 60 73 78 82 87 89 88
33 68 70 61 61 58 53 63 66 59 60 58 66 59 57 57 63 56 59 59 54 51 50 47 51 55 41 41 54 59 60 54 54 49 52 55 63 73 78 80 83 87 90
33 82 80 72 63 60 56 65 74 59 63 60 72 58 58 62 55 56 49 48 53 52 43 39 47 52 45 39 30 18 38 55 56 38 45 49 51 64 70 76 85 91 95
66 89 82 74 67 66 66 63 69 60 64 64 74 59 59 53 51 46 49 54 54 49 45 43 39 38 37 36 33 28 38 48 60 66 61 45 49 49 57 63 67 82 101
87 92 87 81 78 73 66 67 65 62 68 59 56 49 49 57 51 44 47 44 42 41 37 33 31 30 29 28 31 28 30 35 44 30 22 14 7 36 38 50 59 73 103
107 96 95 84 92 83 70 62 65 60 61 59 52 50 50 50 50 45 44 44 40 35 31 25 22 19 16 12 14 26 25 29 32 36 43 44 42 42 52 57 65 74 96
123 101 100 96 93 84 71 67 60 55 52 51 53 55 46 45 42 41 44 39 31 26 20 17 16 16 13 10 13 17 25 22 28 29 39 44 43 50 63 72 75 88 95
113 109 101 101 96 78 67 57 54 52 46 46 42 54 51 47 37 32 29 22 14 10 9 9 11 12 12 14 22 24 23 23 18 36 32 39 50 63 74 85 88 101 108
119 117 110 105 99 80 60 48 40 35 37 35 32 31 33 28 26 15 6 2 1 1 2 5 9 12 14 17 24 29 24 25 24 24 25 34 60 83 98 99 112 118 119
121 127 119 122 120 74 44 28 19 11 10 7 3 0 359 356 353 348 345 346 350 353 358 6 13 11 12 19 23 27 22 26 24 34 32 58 74 90 107 108 134 144 136